Location: Eexterzandvoort
(53.0303°N, 6.7884°E)
Time: 07:08:37
(UTC+00:00)

Cosmos 1633 Rocket - Pass Details

Date: 19 May 2025
Orbit: 600 x 618 km, 82.5° (Epoch: 22 June)

Event Time Altitude Azimuth Distance (km) Brightness Sun altitude
Rises 22:52:00 0° 355° (N) 2,888 8.3 -16.5°
Reaches altitude 10° 22:54:28 10° 6° (N) 1,975 6.9 -16.6°
Maximum altitude 22:58:20 30° 68° (ENE) 1,099 4.4 -16.7°
Enters shadow 23:00:56 17° 120° (ESE) 1,549 4.8 -16.7°
